Find Starlink 34408

NORAD ID: 64363 Int'l Des: 2025-126 Owner: SPXS Country: US Constellation: starlink operational
LEOCIRCULAR

实时位置

正在加载3D地球...

关于 Starlink 34408

正在加载描述...

即将过境

Passes for default location (London). Set your location on the main map for personalized predictions.

高度历史

Loading altitude history...

两行轨道根数

1 64363U 25126V 26106.79334014 .00003262 00000-0 28108-3 0 9999
2 64363 69.9996 298.2135 0002844 272.0662 88.0172 14.98327595 46396
Epoch: Apr 16, 2026 • Age: 13 hours

当前状态

高度 574.1 km
速度 7.57 km/s
星下点 10.80°N, 23.28°W
发射日期 Jun 13, 2025
运行时间 0.8 years
类型 internet

技术详情

分类 Payload
质量 575.00 kg
干质量 530.00 kg
总质量 575.00 kg
长度 0.30 m
直径 4.10 m
跨度 29.00 m
形状 Box + pan
制造商 SPXS
平台类型 Starlink V2MO
阶段状态 In Orbit
所有者/国家 SPXS/US

Most Searched